Time,TemperatureF,DewpointF,PressureIn,WindDirection,WindDirectionDegrees,WindSpeedMPH,WindSpeedGustMPH,Humidity,HourlyPrecipIn,Conditions,Clouds,dailyrainin,SolarRadiationWatts/m^2,SoftwareType,DateUTC
2013-07-03 00:02:00,75.9,41.7,29.48,North,-999,-999.0,-999.0,5,0.00,,,-99.99,0.0,Linux-Irox,2013-07-03 07:02:00,
2013-07-03 00:06:00,76.1,41.9,29.48,North,-999,-999.0,-999.0,5,0.00,,,-99.99,0.0,Linux-Irox,2013-07-03 07:06:00,
2013-07-03 00:16:00,75.7,41.5,29.48,North,-999,-999.0,-999.0,5,0.03,,,-99.99,0.0,Linux-Irox,2013-07-03 07:16:00,
2013-07-03 00:26:00,75.4,41.2,29.48,North,-999,-999.0,-999.0,5,0.00,,,-99.99,0.0,Linux-Irox,2013-07-03 07:26:00,
2013-07-03 00:32:00,75.0,40.8,29.48,North,-999,-999.0,-999.0,5,0.00,,,-99.99,0.0,Linux-Irox,2013-07-03 07:32:00,
2013-07-03 00:36:00,74.7,40.5,29.48,North,-999,-999.0,-999.0,5,0.00,,,-99.99,0.0,Linux-Irox,2013-07-03 07:36:00,
2013-07-03 00:46:00,74.3,40.1,29.48,North,-999,-999.0,-999.0,5,0.03,,,-99.99,0.0,Linux-Irox,2013-07-03 07:46:00,
2013-07-03 01:02:00,73.9,39.7,29.48,North,-999,-999.0,-999.0,5,0.00,,,-99.99,0.0,Linux-Irox,2013-07-03 08:02:00,
2013-07-03 01:06:00,73.8,39.6,29.48,North,-999,-999.0,-999.0,5,0.00,,,-99.99,0.0,Linux-Irox,2013-07-03 08:06:00,
2013-07-03 01:16:00,73.4,39.2,29.48,North,-999,-999.0,-999.0,5,0.00,,,-99.99,0.0,Linux-Irox,2013-07-03 08:16:00,
2013-07-03 01:17:00,73.4,39.2,29.48,North,-999,-999.0,-999.0,5,0.00,,,-99.99,0.0,Linux-Irox,2013-07-03 08:17:00,
2013-07-03 01:26:00,73.2,39.0,29.47,North,-999,-999.0,-999.0,5,0.00,,,-99.99,0.0,Linux-Irox,2013-07-03 08:26:00,
2013-07-03 01:32:00,73.0,38.8,29.47,North,-999,-999.0,-999.0,5,0.00,,,-99.99,0.0,Linux-Irox,2013-07-03 08:32:00,
2013-07-03 01:36:00,73.2,39.0,29.47,North,-999,-999.0,-999.0,5,0.00,,,-99.99,0.0,Linux-Irox,2013-07-03 08:36:00,
2013-07-03 01:46:00,73.8,39.6,29.48,North,-999,-999.0,-999.0,5,0.00,,,-99.99,0.0,Linux-Irox,2013-07-03 08:46:00,
2013-07-03 01:56:00,73.4,39.2,29.48,North,-999,-999.0,-999.0,5,0.00,,,-99.99,0.0,Linux-Irox,2013-07-03 08:56:00,
2013-07-03 02:01:00,73.0,38.8,29.49,North,-999,-999.0,-999.0,5,0.03,,,-99.99,0.0,Linux-Irox,2013-07-03 09:01:00,
2013-07-03 02:06:00,72.9,38.7,29.49,North,-999,-999.0,-999.0,5,0.00,,,-99.99,0.0,Linux-Irox,2013-07-03 09:06:00,
2013-07-03 02:16:00,72.9,38.7,29.49,North,-999,-999.0,-999.0,5,0.03,,,-99.99,0.0,Linux-Irox,2013-07-03 09:16:00,
2013-07-03 02:26:00,72.5,38.3,29.49,North,-999,-999.0,-999.0,5,0.00,,,-99.99,0.0,Linux-Irox,2013-07-03 09:26:00,
2013-07-03 02:31:00,72.5,38.3,29.49,North,-999,-999.0,-999.0,5,0.03,,,-99.99,0.0,Linux-Irox,2013-07-03 09:31:00,
2013-07-03 02:36:00,72.1,37.9,29.49,North,-999,-999.0,-999.0,5,0.00,,,-99.99,0.0,Linux-Irox,2013-07-03 09:36:00,
2013-07-03 02:46:00,72.1,37.9,29.48,North,-999,-999.0,-999.0,5,0.03,,,-99.99,0.0,Linux-Irox,2013-07-03 09:46:00,
2013-07-03 03:06:00,72.1,37.9,29.47,North,-999,-999.0,-999.0,5,0.00,,,-99.99,0.0,Linux-Irox,2013-07-03 10:06:00,
2013-07-03 03:16:00,72.0,37.8,29.47,North,-999,-999.0,-999.0,5,0.00,,,-99.99,0.0,Linux-Irox,2013-07-03 10:16:00,
2013-07-03 03:17:00,72.0,37.8,29.47,North,-999,-999.0,-999.0,5,0.00,,,-99.99,0.0,Linux-Irox,2013-07-03 10:17:00,
2013-07-03 03:26:00,72.1,37.9,29.48,North,-999,-999.0,-999.0,5,0.00,,,-99.99,0.0,Linux-Irox,2013-07-03 10:26:00,
2013-07-03 03:31:00,72.1,37.9,29.48,North,-999,-999.0,-999.0,5,0.03,,,-99.99,0.0,Linux-Irox,2013-07-03 10:31:00,
2013-07-03 03:36:00,72.0,37.8,29.48,North,-999,-999.0,-999.0,5,0.00,,,-99.99,0.0,Linux-Irox,2013-07-03 10:36:00,
2013-07-03 03:46:00,72.0,37.8,29.48,North,-999,-999.0,-999.0,5,0.00,,,-99.99,0.0,Linux-Irox,2013-07-03 10:46:00,
2013-07-03 03:47:00,72.0,37.8,29.48,North,-999,-999.0,-999.0,5,0.00,,,-99.99,0.0,Linux-Irox,2013-07-03 10:47:00,
2013-07-03 03:56:00,72.0,37.8,29.48,North,-999,-999.0,-999.0,5,0.00,,,-99.99,0.0,Linux-Irox,2013-07-03 10:56:00,
2013-07-03 04:01:00,72.3,38.1,29.46,North,-999,-999.0,-999.0,5,0.03,,,-99.99,0.0,Linux-Irox,2013-07-03 11:01:00,
2013-07-03 04:06:00,72.3,38.1,29.46,North,-999,-999.0,-999.0,5,0.00,,,-99.99,0.0,Linux-Irox,2013-07-03 11:06:00,
2013-07-03 04:16:00,72.3,38.1,29.46,North,-999,-999.0,-999.0,5,0.03,,,-99.99,0.0,Linux-Irox,2013-07-03 11:16:00,
2013-07-03 04:26:00,72.5,38.3,29.47,North,-999,-999.0,-999.0,5,0.00,,,-99.99,0.0,Linux-Irox,2013-07-03 11:26:00,
2013-07-03 04:32:00,72.1,37.9,29.47,North,-999,-999.0,-999.0,5,0.00,,,-99.99,0.0,Linux-Irox,2013-07-03 11:32:00,
2013-07-03 04:36:00,71.8,37.6,29.47,North,-999,-999.0,-999.0,5,0.00,,,-99.99,0.0,Linux-Irox,2013-07-03 11:36:00,
2013-07-03 04:46:00,71.6,37.8,29.47,North,-999,-999.0,-999.0,6,0.03,,,-99.99,0.0,Linux-Irox,2013-07-03 11:46:00,
2013-07-03 05:06:00,70.7,38.3,29.46,North,-999,-999.0,-999.0,10,0.00,,,-99.99,0.0,Linux-Irox,2013-07-03 12:06:00,
2013-07-03 05:16:00,70.7,38.3,29.46,North,-999,-999.0,-999.0,10,0.03,,,-99.99,0.0,Linux-Irox,2013-07-03 12:16:00,
2013-07-03 05:32:00,70.7,37.9,29.46,North,-999,-999.0,-999.0,9,0.00,,,-99.99,0.0,Linux-Irox,2013-07-03 12:32:00,
2013-07-03 05:36:00,71.2,38.5,29.46,North,-999,-999.0,-999.0,9,0.00,,,-99.99,0.0,Linux-Irox,2013-07-03 12:36:00,
2013-07-03 05:46:00,72.0,38.5,29.46,North,-999,-999.0,-999.0,7,0.00,,,-99.99,0.0,Linux-Irox,2013-07-03 12:46:00,
2013-07-03 05:56:00,73.6,39.4,29.46,North,-999,-999.0,-999.0,5,0.00,,,-99.99,0.0,Linux-Irox,2013-07-03 12:56:00,
2013-07-03 06:02:00,74.1,39.9,29.48,North,-999,-999.0,-999.0,5,0.00,,,-99.99,0.0,Linux-Irox,2013-07-03 13:02:00,
2013-07-03 06:06:00,74.1,39.9,29.48,North,-999,-999.0,-999.0,5,0.00,,,-99.99,0.0,Linux-Irox,2013-07-03 13:06:00,
2013-07-03 06:16:00,72.5,38.3,29.48,North,-999,-999.0,-999.0,5,0.00,,,-99.99,0.0,Linux-Irox,2013-07-03 13:16:00,
2013-07-03 06:26:00,72.1,37.9,29.46,North,-999,-999.0,-999.0,5,0.00,,,-99.99,0.0,Linux-Irox,2013-07-03 13:26:00,
2013-07-03 06:32:00,72.3,38.1,29.46,North,-999,-999.0,-999.0,5,0.00,,,-99.99,0.0,Linux-Irox,2013-07-03 13:32:00,
2013-07-03 06:36:00,72.5,38.3,29.46,North,-999,-999.0,-999.0,5,0.00,,,-99.99,0.0,Linux-Irox,2013-07-03 13:36:00,
2013-07-03 06:46:00,74.8,40.6,29.47,North,-999,-999.0,-999.0,5,0.00,,,-99.99,0.0,Linux-Irox,2013-07-03 13:46:00,
2013-07-03 07:01:00,79.0,44.8,29.48,North,-999,-999.0,-999.0,5,0.00,,,-99.99,0.0,Linux-Irox,2013-07-03 14:01:00,
2013-07-03 07:06:00,80.8,46.6,29.48,North,-999,-999.0,-999.0,5,0.00,,,-99.99,0.0,Linux-Irox,2013-07-03 14:06:00,
2013-07-03 07:16:00,83.1,48.9,29.48,North,-999,-999.0,-999.0,5,0.00,,,-99.99,0.0,Linux-Irox,2013-07-03 14:16:00,
2013-07-03 07:26:00,87.1,52.9,29.48,North,-999,-999.0,-999.0,5,0.00,,,-99.99,0.0,Linux-Irox,2013-07-03 14:26:00,
2013-07-03 07:32:00,87.8,53.6,29.48,North,-999,-999.0,-999.0,5,0.00,,,-99.99,0.0,Linux-Irox,2013-07-03 14:32:00,
2013-07-03 07:36:00,87.6,53.4,29.48,North,-999,-999.0,-999.0,5,0.00,,,-99.99,0.0,Linux-Irox,2013-07-03 14:36:00,
2013-07-03 07:46:00,89.6,55.4,29.48,North,-999,-999.0,-999.0,5,0.00,,,-99.99,0.0,Linux-Irox,2013-07-03 14:46:00,
2013-07-03 07:56:00,87.6,53.4,29.48,North,-999,-999.0,-999.0,5,0.00,,,-99.99,0.0,Linux-Irox,2013-07-03 14:56:00,
2013-07-03 08:02:00,89.1,54.9,29.47,North,-999,-999.0,-999.0,5,0.00,,,-99.99,0.0,Linux-Irox,2013-07-03 15:02:00,
2013-07-03 08:32:00,91.6,57.4,29.47,North,-999,-999.0,-999.0,5,0.00,,,-99.99,0.0,Linux-Irox,2013-07-03 15:32:00,
2013-07-03 08:47:00,91.0,56.8,29.47,North,-999,-999.0,-999.0,5,0.00,,,-99.99,0.0,Linux-Irox,2013-07-03 15:47:00,
2013-07-03 09:01:00,93.4,59.2,29.48,North,-999,-999.0,-999.0,5,0.00,,,-99.99,0.0,Linux-Irox,2013-07-03 16:01:00,
2013-07-03 09:17:00,95.2,61.0,29.48,North,-999,-999.0,-999.0,5,0.00,,,-99.99,0.0,Linux-Irox,2013-07-03 16:17:00,
2013-07-03 09:32:00,96.1,61.9,29.47,North,-999,-999.0,-999.0,5,0.00,,,-99.99,0.0,Linux-Irox,2013-07-03 16:32:00,
2013-07-03 09:46:00,95.0,60.8,29.46,North,-999,-999.0,-999.0,5,0.00,,,-99.99,0.0,Linux-Irox,2013-07-03 16:46:00,
2013-07-03 10:31:00,97.5,63.3,29.46,North,-999,-999.0,-999.0,5,0.03,,,-99.99,0.0,Linux-Irox,2013-07-03 17:31:00,
2013-07-03 10:46:00,97.5,63.3,29.45,North,-999,-999.0,-999.0,5,0.03,,,-99.99,0.0,Linux-Irox,2013-07-03 17:46:00,
2013-07-03 11:01:00,97.9,63.7,29.43,North,-999,-999.0,-999.0,5,0.03,,,-99.99,0.0,Linux-Irox,2013-07-03 18:01:00,
2013-07-03 11:17:00,98.4,64.2,29.43,North,-999,-999.0,-999.0,5,0.00,,,-99.99,0.0,Linux-Irox,2013-07-03 18:17:00,
2013-07-03 11:31:00,99.0,64.8,29.43,North,-999,-999.0,-999.0,5,0.03,,,-99.99,0.0,Linux-Irox,2013-07-03 18:31:00,
2013-07-03 11:46:00,99.1,64.9,29.42,North,-999,-999.0,-999.0,5,0.03,,,-99.99,0.0,Linux-Irox,2013-07-03 18:46:00,
2013-07-03 12:02:00,99.0,64.8,29.42,North,-999,-999.0,-999.0,5,0.00,,,-99.99,0.0,Linux-Irox,2013-07-03 19:02:00,
2013-07-03 12:16:00,98.4,64.2,29.42,North,-999,-999.0,-999.0,5,0.03,,,-99.99,0.0,Linux-Irox,2013-07-03 19:16:00,
2013-07-03 12:46:00,98.2,64.0,29.41,North,-999,-999.0,-999.0,5,0.03,,,-99.99,0.0,Linux-Irox,2013-07-03 19:46:00,
2013-07-03 13:02:00,97.9,63.7,29.41,North,-999,-999.0,-999.0,5,0.00,,,-99.99,0.0,Linux-Irox,2013-07-03 20:02:00,
2013-07-03 13:32:00,97.7,63.5,29.41,North,-999,-999.0,-999.0,5,0.00,,,-99.99,0.0,Linux-Irox,2013-07-03 20:32:00,
2013-07-03 13:47:00,97.5,63.3,29.41,North,-999,-999.0,-999.0,5,0.00,,,-99.99,0.0,Linux-Irox,2013-07-03 20:47:00,
2013-07-03 14:02:00,97.7,63.5,29.40,North,-999,-999.0,-999.0,5,0.00,,,-99.99,0.0,Linux-Irox,2013-07-03 21:02:00,
2013-07-03 14:16:00,98.6,64.4,29.40,North,-999,-999.0,-999.0,5,0.03,,,-99.99,0.0,Linux-Irox,2013-07-03 21:16:00,
2013-07-03 14:32:00,97.9,63.7,29.40,North,-999,-999.0,-999.0,5,0.00,,,-99.99,0.0,Linux-Irox,2013-07-03 21:32:00,
2013-07-03 14:46:00,98.4,64.2,29.39,North,-999,-999.0,-999.0,5,0.03,,,-99.99,0.0,Linux-Irox,2013-07-03 21:46:00,
2013-07-03 15:01:00,99.7,65.5,29.38,North,-999,-999.0,-999.0,5,0.03,,,-99.99,0.0,Linux-Irox,2013-07-03 22:01:00,
2013-07-03 15:47:00,100.8,66.6,29.35,North,-999,-999.0,-999.0,5,0.00,,,-99.99,0.0,Linux-Irox,2013-07-03 22:47:00,
2013-07-03 16:01:00,100.6,66.4,29.35,North,-999,-999.0,-999.0,5,0.03,,,-99.99,0.0,Linux-Irox,2013-07-03 23:01:00,
2013-07-03 16:17:00,100.0,65.8,29.35,North,-999,-999.0,-999.0,5,0.00,,,-99.99,0.0,Linux-Irox,2013-07-03 23:17:00,
2013-07-03 16:32:00,99.5,65.3,29.34,North,-999,-999.0,-999.0,5,0.00,,,-99.99,0.0,Linux-Irox,2013-07-03 23:32:00,
2013-07-03 16:47:00,99.0,64.8,29.33,North,-999,-999.0,-999.0,5,0.00,,,-99.99,0.0,Linux-Irox,2013-07-03 23:47:00,
2013-07-03 17:02:00,98.6,64.4,29.34,North,-999,-999.0,-999.0,5,0.00,,,-99.99,0.0,Linux-Irox,2013-07-04 00:02:00,
2013-07-03 17:16:00,98.2,64.0,29.34,North,-999,-999.0,-999.0,5,0.03,,,-99.99,0.0,Linux-Irox,2013-07-04 00:16:00,
2013-07-03 17:46:00,96.8,62.6,29.33,North,-999,-999.0,-999.0,5,0.03,,,-99.99,0.0,Linux-Irox,2013-07-04 00:46:00,
2013-07-03 18:01:00,95.4,61.2,29.30,North,-999,-999.0,-999.0,5,0.03,,,-99.99,0.0,Linux-Irox,2013-07-04 01:01:00,
2013-07-03 18:32:00,94.6,60.4,29.30,North,-999,-999.0,-999.0,5,0.00,,,-99.99,0.0,Linux-Irox,2013-07-04 01:32:00,
2013-07-03 18:47:00,93.4,59.2,29.32,North,-999,-999.0,-999.0,5,0.00,,,-99.99,0.0,Linux-Irox,2013-07-04 01:47:00,
2013-07-03 19:01:00,93.4,59.2,29.35,North,-999,-999.0,-999.0,5,0.03,,,-99.99,0.0,Linux-Irox,2013-07-04 02:01:00,
2013-07-03 19:16:00,92.1,57.9,29.35,North,-999,-999.0,-999.0,5,0.03,,,-99.99,0.0,Linux-Irox,2013-07-04 02:16:00,
2013-07-03 19:31:00,90.5,56.3,29.35,North,-999,-999.0,-999.0,5,0.03,,,-99.99,0.0,Linux-Irox,2013-07-04 02:31:00,
2013-07-03 20:17:00,87.3,53.1,29.35,North,-999,-999.0,-999.0,5,0.00,,,-99.99,0.0,Linux-Irox,2013-07-04 03:17:00,
2013-07-03 20:47:00,85.1,50.9,29.35,North,-999,-999.0,-999.0,5,0.00,,,-99.99,0.0,Linux-Irox,2013-07-04 03:47:00,
2013-07-03 21:01:00,83.8,49.6,29.35,North,-999,-999.0,-999.0,5,0.00,,,-99.99,0.0,Linux-Irox,2013-07-04 04:01:00,
2013-07-03 21:17:00,83.3,49.1,29.35,North,-999,-999.0,-999.0,5,0.00,,,-99.99,0.0,Linux-Irox,2013-07-04 04:17:00,
2013-07-03 21:32:00,82.8,48.6,29.36,North,-999,-999.0,-999.0,5,0.00,,,-99.99,0.0,Linux-Irox,2013-07-04 04:32:00,
2013-07-03 21:46:00,82.2,48.0,29.36,North,-999,-999.0,-999.0,5,-0.03,,,-99.99,0.0,Linux-Irox,2013-07-04 04:46:00,
2013-07-03 21:47:00,82.2,48.0,29.36,North,-999,-999.0,-999.0,5,0.00,,,-99.99,0.0,Linux-Irox,2013-07-04 04:47:00,
2013-07-03 21:56:00,81.7,47.5,29.36,North,-999,-999.0,-999.0,5,-0.03,,,-99.99,0.0,Linux-Irox,2013-07-04 04:56:00,
2013-07-03 22:01:00,81.7,47.5,29.37,North,-999,-999.0,-999.0,5,0.00,,,-99.99,0.0,Linux-Irox,2013-07-04 05:01:00,
2013-07-03 22:06:00,81.9,47.7,29.37,North,-999,-999.0,-999.0,5,-0.03,,,-99.99,0.0,Linux-Irox,2013-07-04 05:06:00,
2013-07-03 22:16:00,81.7,47.5,29.37,North,-999,-999.0,-999.0,5,0.00,,,-99.99,0.0,Linux-Irox,2013-07-04 05:16:00,
2013-07-03 22:26:00,81.0,46.8,29.38,North,-999,-999.0,-999.0,5,32.67,,,-99.99,0.0,Linux-Irox,2013-07-04 05:26:00,
2013-07-03 22:31:00,81.0,46.8,29.38,North,-999,-999.0,-999.0,5,0.00,,,-99.99,0.0,Linux-Irox,2013-07-04 05:31:00,
2013-07-03 22:36:00,80.6,46.4,29.38,North,-999,-999.0,-999.0,5,0.00,,,-99.99,0.0,Linux-Irox,2013-07-04 05:36:00,
2013-07-03 22:46:00,80.8,46.6,29.38,North,-999,-999.0,-999.0,5,0.00,,,-99.99,0.0,Linux-Irox,2013-07-04 05:46:00,
2013-07-03 22:47:00,80.8,46.6,29.38,North,-999,-999.0,-999.0,5,0.00,,,-99.99,0.0,Linux-Irox,2013-07-04 05:47:00,
2013-07-03 22:56:00,80.6,46.4,29.38,North,-999,-999.0,-999.0,5,0.00,,,-99.99,0.0,Linux-Irox,2013-07-04 05:56:00,
2013-07-03 23:02:00,80.6,46.4,29.36,North,-999,-999.0,-999.0,5,0.00,,,-99.99,0.0,Linux-Irox,2013-07-04 06:02:00,
2013-07-03 23:06:00,80.1,45.9,29.36,North,-999,-999.0,-999.0,5,0.00,,,-99.99,0.0,Linux-Irox,2013-07-04 06:06:00,
2013-07-03 23:17:00,79.7,45.5,29.36,North,-999,-999.0,-999.0,5,0.00,,,-99.99,0.0,Linux-Irox,2013-07-04 06:17:00,
2013-07-03 23:26:00,80.1,45.9,29.37,North,-999,-999.0,-999.0,5,0.00,,,-99.99,0.0,Linux-Irox,2013-07-04 06:26:00,
2013-07-03 23:32:00,80.2,46.0,29.37,North,-999,-999.0,-999.0,5,0.00,,,-99.99,0.0,Linux-Irox,2013-07-04 06:32:00,
2013-07-03 23:36:00,80.4,46.2,29.37,North,-999,-999.0,-999.0,5,0.00,,,-99.99,0.0,Linux-Irox,2013-07-04 06:36:00,
2013-07-03 23:47:00,81.1,46.9,29.36,North,-999,-999.0,-999.0,5,0.00,,,-99.99,0.0,Linux-Irox,2013-07-04 06:47:00,
2013-07-03 23:56:00,80.6,46.4,29.36,North,-999,-999.0,-999.0,5,0.00,,,-99.99,0.0,Linux-Irox,2013-07-04 06:56:00,